Weather Roundup
Issued by NWS

Home | Current Version | Previous Version | Graphics & Text | Print | Product List | Glossary Off
Versions: 1 2 3 4 5 6 7 8 9 10 11 12 13 14 15 16 17 18 19 20 21 22 23 24 25 26 27 28 29 30 31 32 33 34 35 36 37 38 39 40 41 42 43 44 45 46 47 48 49 50

000
NZUS93 KARX 021059
HRRWXR

CURRENT HOURLY OBSERVATIONS ACROSS
MUCH OF THE UPPER MISSISSIPPI VALLEY
NATIONAL WEATHER SERVICE LA CROSSE WI
600 AM CDT WED SEP 02 2015


...SOUTHEAST MINNESOTA...


CITY           SKY/WX    TMP DP  RH WIND       PRES   REMARKS
ROCHESTER      CLOUDY    70  67  90 W6        29.98F
ROCHESTER/MAYO FAIR      72  68  88 W5G10     29.97F
WINONA         NOT AVBL
AUSTIN         TSTM      72  70  94 CALM      29.99R
ALBERT LEA     MOCLDY    70  68  94 NE6       29.95S
DODGE CENTER   TSTM      66  64  94 SW5       29.97F
PRESTON        CLOUDY    69  66  90 CALM      29.99S
OWATONNA       TSTM      70  66  88 SE14      29.94F
FARIBAULT      CLOUDY    70  66  88 SE13      29.93F
$$

...ELSEWHERE IN MINNESOTA...


CITY           SKY/WX    TMP DP  RH WIND       PRES   REMARKS
MINNEAPOLIS    CLOUDY    70  67  90 NE5       29.91F FOG
INTNL FALLS    CLEAR     55  53  93 SE3       29.92S
DULUTH         LGT RAIN  68  66  93 E7        29.95R FOG
RED WING       LGT RAIN  73  70  88 CALM      29.91F
REDWOOD FALLS  CLEAR     67  63  87 S9        29.86F
MANKATO        MOCLDY    70  64  83 SE9       29.91S
WORTHINGTON    CLEAR     64  63  94 SE5       29.90F
FAIRMONT       CLEAR     70  63  78 S8        29.91S
$$

...SOUTHWEST WISCONSIN...


CITY           SKY/WX    TMP DP  RH WIND       PRES   REMARKS
LA CROSSE      MOCLDY    75  70  84 SE9       29.96R
PRAIRIE DU CHI PTCLDY    70  66  88 CALM      29.99S
BOSCOBEL       FOG       66  65  96 CALM      29.99S VSB 1/4
LONE ROCK      NOT AVBL
PLATTEVILLE    PTCLDY    69  68  96 S6        30.03R
FORT MC COY    PTCLDY    64  63  95 CALM      29.98S
CAMP DOUGLAS   FOG       65  65 100 E3        29.99R VSB 1/4
VIROQUA          N/A     70  70 100 SW5       30.01S
WIS DELLS      MOCLDY    73  67  83 CALM      30.00S
$$

...ELSEWHERE IN WISCONSIN...


CITY           SKY/WX    TMP DP  RH WIND       PRES   REMARKS
MILWAUKEE      CLEAR     74  68  81 W6        30.01R
MADISON        MOCLDY    71  67  87 CALM      30.01R
GREEN BAY      CLEAR     69  68  96 CALM      29.97R FOG
EAU CLAIRE     CLOUDY    73  70  90 SW5       29.95R
BLACK RVR FLS  FAIR      65  65 100 CALM      29.97R FOG
MEDFORD        CLOUDY    71  71 100 SW6       29.99R FOG
WAUSAU         PTCLDY    72  71  97 S6        29.98R FOG
WIS RAPIDS     LGT RAIN  71  69  93 SW3       30.00R FOG
MARSHFIELD     FOG       70  67  90 SW6       29.99R VSB 1/4
RICE LAKE      CLOUDY    72  70  95 NE7       29.97R FOG
$$

...NORTHEAST IOWA...


CITY           SKY/WX    TMP DP  RH WIND       PRES   REMARKS
DECORAH        CLOUDY    72  68  88 S7        29.97F
MASON CITY     CLOUDY    70  67  90 SW12      29.96R
CHARLES CITY   CLOUDY    70  70 100 S13       29.96F
OELWEIN        CLOUDY    70  68  94 S6        30.00S
$$

...ELSEWHERE IN IOWA...


CITY           SKY/WX    TMP DP  RH WIND       PRES   REMARKS
DES MOINES     TSTM      72  67  84 SW9       29.99R
IOWA CITY      CLOUDY    68  66  93 S3        30.03R
FORT DODGE     MOCLDY    72  64  78 S10G18    29.96S
$$

...NORTHERN ILLINOIS...


CITY           SKY/WX    TMP DP  RH WIND       PRES   REMARKS
CHICAGO-OHARE  PTCLDY    73  68  84 SW7       30.03R
CHICAGO-MIDWAY PTCLDY    74  68  81 SW7       30.04R
MOLINE         CLEAR     72  66  81 CALM      30.03R
ROCKFORD       CLEAR     69  66  90 S5        30.05R
PEORIA         CLEAR     72  68  87 S3        30.06R FOG
$$

NOTE: "FAIR" INDICATES FEW OR NO CLOUDS BELOW 12,000 FEET WITH NO
SIGNIFICANT WEATHER AND/OR OBSTRUCTIONS TO VISIBILITY. WIND
SPEEDS ARE IN MILES-PER-HOUR.



USA.gov is the U.S. government's official web portal to all federal, state and local government web resources and services.